Tracking 22124 objects as of 25-Jan-2021
HD Live streaming from Space Station
objects crossing your sky now

STARLINK-1205

Track STARLINK-1205 now!
10-day predictions
STARLINK-1205 is classified as:


NORAD ID: 45184
Int'l Code: 2020-012G
Perigee: 553.3 km
Apogee: 555.5 km
Inclination: 53.1 °
Period: 95.6 minutes
Semi major axis: 6925 km
RCS: Unknown
Launch date: February 17, 2020
Source: United States (US)
Launch site: AIR FORCE EASTERN TEST RANGE (AFETR)
aabbcc
Your satellite tracking list
Your tracking list is empty




NASA's NSSDC Master Catalog

Two Line Element Set (TLE):
1 45184U 20012G   21025.04174484  .00000538  00000-0  55024-4 0  9995
2 45184  53.0568 139.7729 0001578  70.9531 289.1629 15.06392111 52648
Source of the keplerian elements: AFSPC